Tracking 22873 objects as of 23-Apr-2021
HD Live streaming from Space Station
objects crossing your sky now

ABS-1A (KOREASAT 2)

Track ABS-1A (KOREASAT 2) now!
ABS-1A (KOREASAT 2) is classified as:


NORAD ID: 23768
Int'l Code: 1996-003A
Perigee: 35,896.1 km
Apogee: 35,956.5 km
Inclination: 10.1 °
Period: 1,442.9 minutes
Semi major axis: 42297 km
RCS: 25.1188 m2 (large)
Launch date: January 14, 1996
Source: South Korea (SKOR)
Launch site: AIR FORCE EASTERN TEST RANGE (AFETR)

Korean peninsula; 15 Ku-band transponders.
aabbcc
Your satellite tracking list
Your tracking list is empty




NASA's NSSDC Master Catalog

Two Line Element Set (TLE):
1 23768U 96003A   21112.13673885 -.00000252  00000-0  00000-0 0  9992
2 23768  10.0864  37.8143 0007140  21.8920 173.1456  0.99800949 92395
Source of the keplerian elements: AFSPC